Content
SEND FEEDBACK

Daily
Averages
Monthly
Summary
Mexico

SERGIO BUTRÓN CASAS, QUINTANA ROO


Home > North America > Mexico > Quintana Roo
Elevation: 105 feet     Latitude: 18 30N     Longitude: 088 34W

WEATHER
 
SELECT A DAY
Number of Records: 126,235;   Date Range: 1/1/95 - 12/19/14
 
SHARE

PRINT THIS DATA

[ ← Previous Day ]
WEATHER ALMANAC - OCTOBER 18, 2013
[ Next Day → ]
[ °C ]   °F
Weather ElementAverageHighLow
Temperature84.6 °F92 °F (12:50 pm)75 °F (6:50 am)
Dewpoint74.1 °F76 °F (3:50 pm)69 °F (12:50 pm)
Humidity69.9 %96 % (6:50 am)38 % (12:50 pm)
Barometer29.88 in29.94 in (9:42 am)29.82 in (4:40 pm)
Wind Speed6.9 mph11.5 mph (5:40 pm)
Weather ElementAverage
Visibility6.7 mi
Wind DirectionESE (97.6 °)

Weather ElementTotal
Precipitation---
Cooling Degree Days18.5 (Base 65)
Growing Degree Days33.5 (Base 50)
Averaged from 21 records on October 18, 2013
WEATHER CONDITIONS BREAKOUT
WIND DIRECTION BREAKOUT
WEATHER BY HOUR - OCTOBER 18, 2013
[ °C ]   °F
Local TimeTemperatureDewpointHumidityBarometerVisibilityWind DirectionWind SpeedGust SpeedPrecipitationEventsConditions
6:45 AM77.0 °F71.6 °F83 %29.89 in7.0 miCalmScattered Clouds
6:50 AM75.0 °F74.0 °F96 %29.90 in6.0 miWNW (300°)2.2 mphScattered Clouds
7:44 AM77.0 °F71.6 °F83 %29.89 in7.0 miCalmScattered Clouds
8:40 AM80.6 °F73.4 °F79 %29.91 in7.0 miEast (90°)9.2 mphScattered Clouds
9:42 AM84.2 °F73.4 °F70 %29.94 in7.0 miEast (90°)6.9 mphScattered Clouds
10:45 AM87.8 °F75.2 °F66 %29.94 in7.0 miEast (90°)9.2 mphScattered Clouds
11:40 AM87.8 °F75.2 °F66 %29.93 in7.0 miEast (90°)6.9 mphScattered Clouds
12:40 PM87.8 °F75.2 °F66 %29.91 in7.0 miEast (100°)9.2 mphScattered Clouds
12:50 PM92.0 °F69.0 °F38 %29.91 in6.0 miEast (90°)4.5 mphPartly Cloudy
1:45 PM87.8 °F75.2 °F66 %29.87 in7.0 miEast (90°)6.9 mphScattered Clouds
2:40 PM87.8 °F75.2 °F66 %29.84 in7.0 miESE (120°)9.2 mphScattered Clouds
3:41 PM87.8 °F75.2 °F66 %29.84 in7.0 miESE (120°)6.9 mphScattered Clouds
3:50 PM92.0 °F76.0 °F51 %29.85 in6.0 miEast (90°)6.7 mphPartly Cloudy
4:40 PM86.0 °F73.4 °F66 %29.82 in7.0 miESE (120°)9.2 mphScattered Clouds
5:40 PM86.0 °F73.4 °F66 %29.83 in7.0 miESE (120°)11.5 mphScattered Clouds
6:43 PM84.2 °F75.2 °F74 %29.85 in7.0 miESE (120°)11.5 mphScattered Clouds
6:50 PM85.0 °F73.0 °F60 %29.87 in6.0 miEast (90°)4.5 mphPartly Cloudy
7:42 PM84.2 °F75.2 °F74 %29.86 in7.0 miESE (120°)11.5 mphScattered Clouds
8:40 PM82.4 °F75.2 °F79 %29.84 in7.0 miESE (120°)11.5 mphScattered Clouds
9:41 PM82.4 °F75.2 °F79 %29.90 in7.0 miCalmScattered Clouds
9:50 PM82.0 °F75.0 °F74 %29.91 in5.0 miEast (90°)6.7 mphScattered Clouds
Hourly data recorded from MMCM, located miles away from Sergio Butrón Casas, Quintana Roo







STORIES FROM OUR PARTNERS